Kankakee, IL

10:32 PM CDT on June 23, 2017 (GMT -0500)
Greater Kankakee

Weather History for KIKK - November, 2012

Change the Weather History Date:

Monday, November 26, 2012

  Actual Average Record
Temperature  
Mean Temperature 32 °F -  
Max Temperature 36 °F 45 °F 66 °F (2006)
Min Temperature 28 °F 27 °F 1 °F (1977)
Degree Days  
Heating Degree Days 32    
Moisture  
Dew Point 22 °F    
Average Humidity 65    
Maximum Humidity 83    
Minimum Humidity 47    
Precipitation  
Precipitation 0.00 in - - ()
Sea Level Pressure  
Sea Level Pressure 30.24 in    
Wind  
Wind Speed 5 mph (NNW)    
Max Wind Speed 10 mph    
Max Gust Speed -    
Visibility 10 miles    
Events      
Averages and records for this station are not official NWS values.
T = Trace of Precipitation, MM = Missing Value Source: NWS Daily Summary

Daily Weather History Graph

Daily Weather History Graph

Search for Another Location

Airport or City:

Trip Planner

Search our weather history database for the weather conditions in past years. The results will help you decide how hot, cold, wet, or windy it might be!

Date:

Astronomy

Nov. 26, 2012 Rise Set
Actual Time 6:52 AM CST 4:25 PM CST
Civil Twilight 6:21 AM CST 4:55 PM CST
Nautical Twilight 5:48 AM CST 5:29 PM CST
Astronomical Twilight 5:15 AM CST 6:02 PM CST
Moon 3:17 PM CST (11/26) 5:01 AM CST (11/26)
Length of Visible Light 10h 33m
Length of Day
9h 32m
Waxing Gibbous, 97% of the Moon is Illuminated
Nov 26
Waxing Gibbous
Nov 28
Full
Dec 6
Last Quarter
Dec 13
New
Dec 19
First Quarter

Hourly Weather History & Observations

Time (CST) Temp. Windchill Dew Point Humidity Pressure Visibility Wind Dir Wind Speed Gust Speed Precip Events Conditions
12:15 AM 33.8 °F 28.6 °F 27.5 °F 78% 30.09 in 10.0 mi West 5.8 mph - N/A   Mostly Cloudy
12:35 AM 33.4 °F 30.4 °F 27.5 °F 79% 30.09 in 10.0 mi WSW 3.5 mph - N/A   Mostly Cloudy
12:55 AM 33.8 °F 29.6 °F 28.4 °F 81% 30.09 in 10.0 mi WNW 4.6 mph - N/A   Overcast
1:15 AM 33.8 °F 29.6 °F 27.5 °F 78% 30.09 in 10.0 mi NW 4.6 mph - N/A   Mostly Cloudy
1:35 AM 33.1 °F - 27.0 °F 78% 30.10 in 10.0 mi Calm Calm - N/A   Scattered Clouds
1:55 AM 30.6 °F 27.1 °F 25.9 °F 83% 30.11 in 10.0 mi NW 3.5 mph - N/A   Clear
2:15 AM 32.2 °F 27.7 °F 26.8 °F 80% 30.11 in 10.0 mi NW 4.6 mph - N/A   Clear
2:35 AM 32.2 °F 26.7 °F 26.8 °F 80% 30.11 in 10.0 mi NW 5.8 mph - N/A   Clear
2:55 AM 32.0 °F - 26.6 °F 80% 30.11 in 10.0 mi Calm Calm - N/A   Clear
3:15 AM 32.0 °F - 26.4 °F 80% 30.12 in 10.0 mi Calm Calm - N/A   Clear
3:35 AM 32.0 °F 28.7 °F 26.4 °F 80% 30.12 in 10.0 mi NW 3.5 mph - N/A   Clear
3:55 AM 31.8 °F - 27.0 °F 82% 30.13 in 10.0 mi Calm Calm - N/A   Clear
4:15 AM 31.6 °F 28.3 °F 26.6 °F 82% 30.14 in 10.0 mi NW 3.5 mph - N/A   Clear
4:35 AM 32.0 °F 25.6 °F 26.2 °F 79% 30.14 in 10.0 mi NNW 6.9 mph - N/A   Clear
4:55 AM 32.0 °F 27.5 °F 25.7 °F 78% 30.15 in 10.0 mi North 4.6 mph - N/A   Clear
5:15 AM 32.0 °F 27.5 °F 25.0 °F 75% 30.16 in 10.0 mi North 4.6 mph - N/A   Scattered Clouds
5:35 AM 31.3 °F 23.9 °F 24.4 °F 76% 30.17 in 10.0 mi NNW 8.1 mph - N/A   Scattered Clouds
5:55 AM 30.9 °F 26.2 °F 24.3 °F 76% 30.18 in 10.0 mi NNW 4.6 mph - N/A   Clear
6:15 AM 30.9 °F 25.2 °F 23.2 °F 73% 30.19 in 10.0 mi North 5.8 mph - N/A   Mostly Cloudy
6:35 AM 31.1 °F 25.4 °F 21.9 °F 69% 30.20 in 10.0 mi NNW 5.8 mph - N/A   Overcast
6:55 AM 31.1 °F 25.4 °F 21.9 °F 69% 30.19 in 10.0 mi North 5.8 mph - N/A   Overcast
7:15 AM 31.1 °F 24.5 °F 21.0 °F 66% 30.20 in 10.0 mi NNW 6.9 mph - N/A   Overcast
7:35 AM 31.1 °F 23.7 °F 21.6 °F 68% 30.22 in 10.0 mi NNW 8.1 mph - N/A   Mostly Cloudy
7:55 AM 30.9 °F 24.3 °F 21.6 °F 68% 30.22 in 10.0 mi NNW 6.9 mph - N/A   Overcast
8:15 AM 30.9 °F 23.5 °F 21.7 °F 69% 30.22 in 10.0 mi NNW 8.1 mph - N/A   Mostly Cloudy
8:35 AM 31.1 °F 23.7 °F 22.1 °F 69% 30.23 in 10.0 mi NNW 8.1 mph - N/A   Mostly Cloudy
8:55 AM 31.1 °F 24.5 °F 21.7 °F 68% 30.24 in 10.0 mi NNW 6.9 mph - N/A   Scattered Clouds
9:15 AM 32.0 °F 24.8 °F 21.4 °F 65% 30.24 in 10.0 mi North 8.1 mph - N/A   Mostly Cloudy
9:35 AM 32.2 °F 26.7 °F 20.3 °F 62% 30.25 in 10.0 mi North 5.8 mph - N/A   Overcast
9:55 AM 33.1 °F 26.1 °F 20.1 °F 59% 30.26 in 10.0 mi NNW 8.1 mph - N/A   Overcast
10:15 AM 33.4 °F 27.3 °F 19.8 °F 57% 30.26 in 10.0 mi North 6.9 mph - N/A   Overcast
10:35 AM 33.6 °F 27.5 °F 18.3 °F 54% 30.26 in 10.0 mi North 6.9 mph - N/A   Overcast
10:55 AM 33.8 °F 27.0 °F 18.0 °F 52% 30.25 in 10.0 mi North 8.1 mph - N/A   Overcast
11:15 AM 34.2 °F 29.0 °F 18.5 °F 53% 30.24 in 10.0 mi NNE 5.8 mph - N/A   Overcast
11:35 AM 34.5 °F 29.4 °F 18.3 °F 52% 30.24 in 10.0 mi North 5.8 mph - N/A   Overcast
11:55 AM 34.5 °F 28.6 °F 17.2 °F 49% 30.23 in 10.0 mi North 6.9 mph - N/A   Overcast
12:15 PM 34.9 °F 29.0 °F 17.2 °F 49% 30.23 in 10.0 mi NNE 6.9 mph - N/A   Overcast
12:35 PM 35.2 °F 28.8 °F 16.7 °F 47% 30.24 in 10.0 mi NNW 8.1 mph - N/A   Overcast
12:55 PM 35.6 °F 28.0 °F 17.8 °F 48% 30.24 in 10.0 mi NNW 10.4 mph - N/A   Mostly Cloudy
1:15 PM 35.8 °F 30.1 °F 18.5 °F 50% 30.24 in 10.0 mi NNW 6.9 mph - N/A   Scattered Clouds
1:35 PM 35.6 °F 29.9 °F 18.5 °F 50% 30.23 in 10.0 mi NNW 6.9 mph - N/A   Mostly Cloudy
1:55 PM 36.0 °F 29.6 °F 18.9 °F 50% 30.24 in 10.0 mi NNW 8.1 mph - N/A   Mostly Cloudy
2:15 PM 35.6 °F 28.6 °F 18.5 °F 50% 30.24 in 10.0 mi NNW 9.2 mph - N/A   Mostly Cloudy
2:35 PM 35.2 °F 29.5 °F 18.7 °F 51% 30.25 in 10.0 mi North 6.9 mph - N/A   Overcast
2:55 PM 34.9 °F 27.7 °F 18.3 °F 51% 30.25 in 10.0 mi NNW 9.2 mph - N/A   Overcast
3:15 PM 34.9 °F 29.0 °F 18.5 °F 51% 30.26 in 10.0 mi North 6.9 mph - N/A   Overcast
3:35 PM 34.9 °F 29.0 °F 18.9 °F 52% 30.26 in 10.0 mi North 6.9 mph - N/A   Overcast
3:55 PM 34.9 °F 29.0 °F 18.9 °F 52% 30.26 in 10.0 mi North 6.9 mph - N/A   Overcast
4:15 PM 34.7 °F 29.6 °F 18.9 °F 52% 30.26 in 10.0 mi NNW 5.8 mph - N/A   Overcast
4:35 PM 34.7 °F 30.6 °F 19.0 °F 53% 30.27 in 10.0 mi NNW 4.6 mph - N/A   Overcast
4:55 PM 34.2 °F 29.0 °F 19.0 °F 54% 30.27 in 10.0 mi NW 5.8 mph - N/A   Overcast
5:15 PM 34.0 °F 29.8 °F 19.2 °F 55% 30.29 in 10.0 mi NW 4.6 mph - N/A   Overcast
5:35 PM 33.8 °F 29.6 °F 19.6 °F 56% 30.30 in 10.0 mi NW 4.6 mph - N/A   Overcast
5:55 PM 33.8 °F 28.6 °F 20.1 °F 57% 30.30 in 10.0 mi NW 5.8 mph - N/A   Overcast
6:15 PM 33.4 °F 28.1 °F 20.7 °F 59% 30.30 in 10.0 mi WNW 5.8 mph - N/A   Overcast
6:35 PM 33.3 °F 28.9 °F 21.2 °F 61% 30.31 in 10.0 mi WNW 4.6 mph - N/A   Overcast
6:55 PM 33.3 °F 28.9 °F 21.4 °F 62% 30.31 in 10.0 mi NW 4.6 mph - N/A   Overcast
7:15 PM 33.3 °F 28.9 °F 21.7 °F 63% 30.31 in 10.0 mi NW 4.6 mph - N/A   Overcast
7:35 PM 33.4 °F 27.3 °F 21.7 °F 62% 30.32 in 10.0 mi NW 6.9 mph - N/A   Overcast
7:55 PM 33.1 °F 28.7 °F 22.1 °F 64% 30.32 in 10.0 mi NW 4.6 mph - N/A   Overcast
8:15 PM 32.9 °F 27.5 °F 22.8 °F 66% 30.32 in 10.0 mi NW 5.8 mph - N/A   Mostly Cloudy
8:35 PM 32.4 °F 29.1 °F 23.4 °F 69% 30.33 in 10.0 mi NW 3.5 mph - N/A   Mostly Cloudy
8:55 PM 32.2 °F 28.9 °F 23.9 °F 72% 30.34 in 10.0 mi NW 3.5 mph - N/A   Mostly Cloudy
9:15 PM 32.2 °F 27.7 °F 23.9 °F 72% 30.34 in 10.0 mi NW 4.6 mph - N/A   Overcast
9:35 PM 32.2 °F 27.7 °F 23.9 °F 72% 30.34 in 10.0 mi NW 4.6 mph - N/A   Overcast
9:55 PM 32.0 °F 27.5 °F 23.5 °F 71% 30.34 in 10.0 mi NW 4.6 mph - N/A   Overcast
10:15 PM 32.0 °F 27.5 °F 23.7 °F 71% 30.34 in 10.0 mi NW 4.6 mph - N/A   Overcast
10:35 PM 32.0 °F 27.5 °F 23.5 °F 71% 30.35 in 10.0 mi NNW 4.6 mph - N/A   Overcast
10:55 PM 31.5 °F 24.9 °F 23.2 °F 71% 30.35 in 10.0 mi NNW 6.9 mph - N/A   Mostly Cloudy
11:15 PM 30.6 °F 24.7 °F 23.0 °F 74% 30.35 in 10.0 mi NNW 5.8 mph - N/A   Mostly Cloudy
11:35 PM 29.5 °F 22.5 °F 23.0 °F 77% 30.35 in 10.0 mi NNW 6.9 mph - N/A   Scattered Clouds
11:55 PM 28.8 °F 23.7 °F 23.0 °F 79% 30.35 in 10.0 mi NNW 4.6 mph - N/A   Clear